Location: Champignolles
(47.0543°N, 4.5663°E)
Time: 20:10:15
(UTC+00:00)

Cosmos 1867 - Pass Details

Date: 30 November 2020
Orbit: 775 x 800 km, 65.0° (Epoch: 27 January)

Event Time Altitude Azimuth Distance (km) Brightness Sun altitude
Rises 17:02:31 0° 227° (SW) 3,268 8.1 -11.2°
Reaches altitude 10° 17:04:57 10° 231° (SW) 2,347 7.3 -11.6°
Maximum altitude 17:10:17 60° 311° (NW) 905 4.0 -12.5°
Enters shadow 17:15:38 10° 32° (NNE) 2,350 5.6 -13.3°
